When you browse on this site, cookies collect data to enhance your experience and personalize the content and advertising you see.
Visit our Privacy Policy to learn more. By continuing to use the site, you agree to this use of cookies and data.
  • In Czech Republic
  • List of Countries
  • For 7 days
  • Water Temperature
  • Weather Map
  • Weather Widgets
  • user-avatar
    Login

    Hourly Weather Kaposvar

    Today, 19 February, Wednesday

    Time Temperature Precipitation Wind Pressure Humidity
    00:00 +6°C° 0 mm 2 mps 754 mmHg 64%
    01:00 +6°C° 0 mm 1 mps 754 mmHg 62%
    02:00 +6°C° 0 mm 1 mps 754 mmHg 63%
    03:00 +6°C° 0 mm 1 mps 753 mmHg 64%
    04:00 +4°C° 0 mm 0 mps 753 mmHg 65%
    05:00 +4°C° 0 mm 0 mps 753 mmHg 66%
    06:00 +5°C° 0 mm 1 mps 753 mmHg 67%
    07:00 +5°C° 0 mm 1 mps 753 mmHg 66%
    08:00 +6°C° 0 mm 1 mps 752 mmHg 61%
    09:00 +8°C° 0 mm 1 mps 752 mmHg 55%
    10:00 +9°C° 0 mm 1 mps 752 mmHg 50%
    11:00 +10°C° 0 mm 1 mps 751 mmHg 48%
    12:00 +10°C° 0 mm 1 mps 751 mmHg 45%
    13:00 +11°C° 0 mm 1 mps 750 mmHg 43%
    14:00 +11°C° 0 mm 1 mps 749 mmHg 44%
    15:00 +11°C° 0 mm 1 mps 749 mmHg 45%
    16:00 +11°C° 0 mm 1 mps 748 mmHg 47%
    17:00 +10°C° 0 mm 1 mps 748 mmHg 49%
    18:00 +10°C° 0 mm 1 mps 749 mmHg 52%
    19:00 +9°C° 0 mm 1 mps 749 mmHg 54%
    20:00 +7°C° 0.3 mm 2 mps 750 mmHg 61%
    21:00 +7°C° 0.3 mm 3 mps 750 mmHg 68%
    22:00 +5°C° 0.3 mm 4 mps 751 mmHg 75%
    23:00 +5°C° 0 mm 4 mps 751 mmHg 73%

    Tomorrow, 20 February, Thursday

    Time Temperature Precipitation Wind Pressure Humidity
    00:00 +4°C° 0 mm 4 mps 751 mmHg 71%
    01:00 +4°C° 0 mm 4 mps 752 mmHg 69%
    02:00 +4°C° 0 mm 4 mps 752 mmHg 68%
    03:00 +2°C° 0 mm 5 mps 752 mmHg 67%
    04:00 +2°C° 0 mm 5 mps 752 mmHg 66%
    05:00 +2°C° 0 mm 5 mps 752 mmHg 67%
    06:00 +1°C° 0 mm 4 mps 752 mmHg 68%
    07:00 +1°C° 0 mm 4 mps 753 mmHg 69%
    08:00 +3°C° 0 mm 4 mps 753 mmHg 64%
    09:00 +3°C° 0 mm 5 mps 753 mmHg 59%
    10:00 +4°C° 0 mm 6 mps 753 mmHg 53%
    11:00 +6°C° 0 mm 5 mps 753 mmHg 52%
    12:00 +6°C° 0 mm 5 mps 753 mmHg 50%
    13:00 +7°C° 0 mm 5 mps 753 mmHg 48%
    14:00 +7°C° 0 mm 4 mps 753 mmHg 48%
    15:00 +8°C° 0 mm 3 mps 752 mmHg 48%
    16:00 +8°C° 0 mm 3 mps 752 mmHg 48%
    17:00 +7°C° 0 mm 2 mps 752 mmHg 52%
    18:00 +7°C° 0 mm 1 mps 752 mmHg 56%
    19:00 +6°C° 0 mm 1 mps 752 mmHg 60%
    20:00 +6°C° 0 mm 1 mps 752 mmHg 62%
    21:00 +5°C° 0 mm 1 mps 752 mmHg 64%
    22:00 +5°C° 0 mm 1 mps 752 mmHg 66%
    23:00 +5°C° 0 mm 1 mps 752 mmHg 67%

    Day after tomorrow, 21 February, Friday

    Time Temperature Precipitation Wind Pressure Humidity
    00:00 +4°C° 0 mm 2 mps 752 mmHg 68%
    01:00 +4°C° 0 mm 2 mps 752 mmHg 70%
    02:00 +3°C° 0 mm 2 mps 752 mmHg 71%
    03:00 +3°C° 0 mm 2 mps 752 mmHg 72%
    04:00 +2°C° 0 mm 2 mps 752 mmHg 73%
    05:00 +2°C° 0 mm 2 mps 752 mmHg 72%
    06:00 +2°C° 0 mm 2 mps 752 mmHg 71%
    07:00 +2°C° 0 mm 2 mps 752 mmHg 71%
    14:00 +7°C° 0 mm 5 mps 754 mmHg 55%
    15:00 +7°C° 0 mm 5 mps 755 mmHg 47%
    16:00 +7°C° 0 mm 6 mps 755 mmHg 39%
    17:00 +6°C° 0 mm 5 mps 756 mmHg 43%
    18:00 +5°C° 0 mm 4 mps 756 mmHg 46%
    19:00 +4°C° 0 mm 3 mps 757 mmHg 50%
    20:00 +4°C° 0 mm 3 mps 757 mmHg 53%
    21:00 +3°C° 0 mm 3 mps 758 mmHg 56%
    22:00 +3°C° 0 mm 3 mps 758 mmHg 59%
    23:00 +3°C° 0 mm 2 mps 758 mmHg 61%

    22 February, Saturday

    Time Temperature Precipitation Wind Pressure Humidity
    00:00 +3°C° 0 mm 2 mps 758 mmHg 62%
    01:00 +4°C° 0 mm 1 mps 758 mmHg 64%
    02:00 +4°C° 0 mm 1 mps 758 mmHg 65%
    03:00 +3°C° 0 mm 1 mps 758 mmHg 66%
    04:00 +3°C° 0 mm 1 mps 758 mmHg 67%
    05:00 +3°C° 0 mm 1 mps 758 mmHg 68%
    06:00 +3°C° 0 mm 1 mps 758 mmHg 69%
    07:00 +3°C° 0 mm 1 mps 758 mmHg 69%
    08:00 +4°C° 0 mm 1 mps 759 mmHg 64%
    09:00 +5°C° 0 mm 2 mps 759 mmHg 58%
    10:00 +6°C° 0 mm 2 mps 759 mmHg 52%
    11:00 +7°C° 0 mm 3 mps 759 mmHg 50%
    12:00 +8°C° 0 mm 3 mps 758 mmHg 48%
    13:00 +8°C° 0 mm 4 mps 758 mmHg 45%
    14:00 +8°C° 0 mm 4 mps 758 mmHg 46%
    15:00 +8°C° 0 mm 4 mps 757 mmHg 46%
    16:00 +10°C° 0 mm 4 mps 757 mmHg 47%
    17:00 +8°C° 0 mm 3 mps 756 mmHg 52%
    18:00 +7°C° 0 mm 3 mps 756 mmHg 57%
    19:00 +5°C° 0 mm 3 mps 756 mmHg 62%
    20:00 +5°C° 0 mm 3 mps 756 mmHg 63%
    21:00 +5°C° 0 mm 3 mps 756 mmHg 63%
    22:00 +4°C° 0 mm 3 mps 755 mmHg 64%
    23:00 +4°C° 0 mm 3 mps 755 mmHg 63%

    23 February, Sunday

    Time Temperature Precipitation Wind Pressure Humidity
    00:00 +4°C° 0 mm 3 mps 755 mmHg 63%
    01:00 +4°C° 0 mm 3 mps 755 mmHg 63%
    02:00 +4°C° 0 mm 3 mps 755 mmHg 65%
    03:00 +3°C° 0 mm 3 mps 755 mmHg 67%
    04:00 +3°C° 0 mm 3 mps 754 mmHg 70%
    05:00 +4°C° 0 mm 2 mps 754 mmHg 72%
    06:00 +4°C° 0 mm 2 mps 754 mmHg 74%
    07:00 +3°C° 0 mm 2 mps 754 mmHg 76%
    08:00 +5°C° 0 mm 2 mps 754 mmHg 71%
    09:00 +6°C° 0 mm 2 mps 754 mmHg 66%
    10:00 +8°C° 0 mm 2 mps 754 mmHg 61%
    11:00 +9°C° 0 mm 2 mps 754 mmHg 57%
    12:00 +12°C° 0 mm 2 mps 753 mmHg 52%
    13:00 +13°C° 0 mm 2 mps 753 mmHg 48%
    14:00 +13°C° 0 mm 2 mps 752 mmHg 48%
    15:00 +13°C° 0 mm 3 mps 751 mmHg 49%
    16:00 +13°C° 0 mm 3 mps 750 mmHg 49%
    17:00 +12°C° 0 mm 3 mps 750 mmHg 53%
    18:00 +11°C° 0 mm 3 mps 750 mmHg 57%
    19:00 +10°C° 0 mm 4 mps 750 mmHg 61%
    20:00 +8°C° 0 mm 4 mps 749 mmHg 62%
    21:00 +8°C° 0 mm 5 mps 749 mmHg 62%
    22:00 +8°C° 0 mm 6 mps 748 mmHg 63%
    23:00 +7°C° 0 mm 6 mps 748 mmHg 65%

    24 February, Monday

    Time Temperature Precipitation Wind Pressure Humidity
    00:00 +6°C° 0 mm 7 mps 748 mmHg 66%
    01:00 +6°C° 0 mm 7 mps 747 mmHg 68%
    02:00 +7°C° 0 mm 6 mps 747 mmHg 70%
    03:00 +7°C° 0 mm 5 mps 747 mmHg 73%
    04:00 +6°C° 0 mm 5 mps 747 mmHg 75%
    05:00 +6°C° 0 mm 5 mps 748 mmHg 75%
    06:00 +6°C° 0 mm 5 mps 750 mmHg 75%
    07:00 +5°C° 0 mm 6 mps 751 mmHg 75%
    08:00 +5°C° 0 mm 7 mps 753 mmHg 63%
    09:00 +6°C° 0 mm 8 mps 754 mmHg 51%
    10:00 +6°C° 0 mm 9 mps 755 mmHg 39%
    11:00 +7°C° 0 mm 9 mps 756 mmHg 37%
    12:00 +7°C° 0 mm 8 mps 756 mmHg 35%
    13:00 +9°C° 0 mm 7 mps 756 mmHg 34%
    14:00 +9°C° 0 mm 6 mps 756 mmHg 34%
    15:00 +9°C° 0 mm 6 mps 756 mmHg 35%
    16:00 +9°C° 0 mm 5 mps 756 mmHg 35%
    17:00 +7°C° 0 mm 4 mps 756 mmHg 40%
    18:00 +7°C° 0 mm 3 mps 756 mmHg 45%
    19:00 +6°C° 0 mm 2 mps 757 mmHg 50%
    20:00 +6°C° 0 mm 1 mps 757 mmHg 53%
    21:00 +6°C° 0 mm 1 mps 757 mmHg 55%
    22:00 +5°C° 0 mm 1 mps 757 mmHg 57%
    23:00 +5°C° 0 mm 1 mps 756 mmHg 59%
    Show more